Regional Weather Roundup
Issued by NWS

Home | Current Version | Previous Version | Graphics & Text | Print | Product List | Glossary On
Versions: 1 2 3 4 5 6 7 8 9 10 11 12 13 14 15 16 17 18 19 20 21 22 23 24 25 26 27 28 29 30 31 32 33 34 35 36 37 38 39 40 41 42 43 44 45 46 47 48 49 50
000
ASUS43 KLOT 230600
RWRIL

ILLINOIS REGIONAL WEATHER ROUNDUP
NATIONAL WEATHER SERVICE CHICAGO/ROMEOVILLE IL
100 AM CDT THU OCT 23 2014

NOTE: "FAIR" INDICATES FEW OR NO CLOUDS BELOW 12,000 FEET WITH NO
SIGNIFICANT WEATHER AND/OR OBSTRUCTIONS TO VISIBILITY.

* THESE STATIONS ARE NOT UNDER NWS QUALITY CONTROL. THEY ALSO MAY NOT
  REPORT WEATHER SUCH AS PRECIPITATION OR FOG.

ILZ001-002-007-009-015-016-024-230700-
NORTHWEST ILLINOIS

CITY           SKY/WX    TMP DP  RH WIND       PRES   REMARKS
MOLINE         PTCLDY    44  35  70 SE7       30.19F
6HR MIN TEMP:  39; 6HR MAX TEMP:  48;

STERLING*      CLEAR     39  34  81 SE7       30.21F WCI  34
$$

ILZ003-004-008-010-011-017-018-230700-
NORTH CENTRAL ILLINOIS

CITY           SKY/WX    TMP DP  RH WIND       PRES   REMARKS
ROCKFORD       PTCLDY    40  34  79 SE9       30.23F
6HR MIN TEMP:  39; 6HR MAX TEMP:  50;

$$

ILZ005-006-012>014-019>023-230700-
NORTHEAST ILLINOIS

CITY           SKY/WX    TMP DP  RH WIND       PRES   REMARKS
CHICAGO-OHARE  CLEAR     38  35  89 CALM      30.25F
6HR MIN TEMP:  35; 6HR MAX TEMP:  46;

CHICAGO-MIDWAY CLEAR     45  39  79 SE6       30.26F
6HR MIN TEMP:  44; 6HR MAX TEMP:  50;

AURORA         CLEAR     34  30  85 SE3       30.25F
6HR MIN TEMP:  33; 6HR MAX TEMP:  48;

WAUKEGAN       FAIR      33  31  92 CALM      30.24F
6HR MIN TEMP:  31; 6HR MAX TEMP:  43;

DUPAGE AIRPORT CLEAR     35  33  92 CALM      30.24F
6HR MIN TEMP:  35; 6HR MAX TEMP:  48;

WHEELING       CLEAR     37  33  85 CALM      30.27F
6HR MIN TEMP:  36; 6HR MAX TEMP:  47;

NORTHERLY ISL    N/A     46  39  76 S7          N/A
$$

LMZ740>746-230700-
SOUTHERN LAKE MICHIGAN

STATION/POSITION SKY/WX   TEMP    WIND        PRES    VSBY  WAVE
                          AIR SEA DIR/SP/G                  HT/PER
                          (F)     (DEG/KT/KT) (MB)    (MI)  (FT/S)
SOUTHERN BUOY              50 54  150/ 12/ 14 1025.5S         1/ 3
WAUKEGAN HARBOR            45        CALM       N/A
HARRISON CRIB              50     160/ 10/ 14   N/A
BURNHAM HARBOR             46     170/  5/  9   N/A
CALUMET HARBOR             45     160/  3/  4 1023.7F
MICHIGAN CITY              41     120/  8/  9   N/A
$$

ILZ025>027-034>036-040-047-049-050-058-095>099-230700-
WEST-CENTRAL ILLINOIS

CITY           SKY/WX    TMP DP  RH WIND       PRES   REMARKS
QUINCY         CLEAR     43  38  82 SE7       30.19F
$$

ILZ028>032-037-038-041>044-048-051>054-059>061-230700-
CENTRAL ILLINOIS

CITY           SKY/WX    TMP DP  RH WIND       PRES   REMARKS
DECATUR        CLEAR     36  34  92 CALM      30.25F
PEORIA         CLEAR     42  36  79 CALM      30.23F
6HR MIN TEMP:  42; 6HR MAX TEMP:  56;

SPRINGFIELD    CLEAR     40  36  86 E3        30.23F
6HR MIN TEMP:  38; 6HR MAX TEMP:  52;

TAYLORVILLE    NOT AVBL
$$

ILZ033-039-045-046-055>057-062-063-230700-
EAST-CENTRAL ILLINOIS

CITY           SKY/WX    TMP DP  RH WIND       PRES   REMARKS
CHAMPAIGN      CLEAR     39  35  86 E7        30.26S WCI  34
MATTOON        CLEAR     40  38  93 S5        30.25F
$$

ILZ079-100>102-230700-
SOUTHWEST ILLINOIS

CITY           SKY/WX    TMP DP  RH WIND       PRES   REMARKS
BELLEVILLE     CLEAR     40  40  99 CALM      30.22F FOG
CAHOKIA*       CLEAR     40  39  97 CALM      30.23F
$$

ILZ064>066-069>071-074>076-080>082-084>086-088>090-092>094-230700-
SOUTH-CENTRAL ILLINOIS

CITY           SKY/WX    TMP DP  RH WIND       PRES   REMARKS
CARBONDALE     FOG       35  35 100 CALM      30.24F VSB 3/4
6HR MIN TEMP:  35; 6HR MAX TEMP:  48;

MT. VERNON     CLEAR     37  32  81 CALM      30.25S
$$

ILZ067-068-072-073-078-083-087-091-230700-
SOUTHEAST ILLINOIS

CITY           SKY/WX    TMP DP  RH WIND       PRES   REMARKS
LAWRENCEVILLE  CLEAR     41  40  96 NE5       30.26S
$$

ABBREVIATIONS USED IN REMARKS
   TC - TEMPERATURE IN CELSIUS
  WCI - WIND CHILL INDEX
   HX - HEAT INDEX
  VSB - VISIBILITY
$$




USA.gov is the U.S. government's official web portal to all federal, state and local government web resources and services.